| time (UTC) | temp F | wind direction | speed MPH | gust MPH | rain 1hr in | rain 24hr in | rain mn in | humidity % | barometer mb |
| 20260901033003 | 72 | 321 | 0.0 | 1.0 | 0.00 | 0.00 | 0.00 | 87 | 1011.3 |
| 20260901031553 | 72 | 321 | 0.0 | 0.0 | 0.00 | 0.00 | 0.00 | 86 | 1011.2 |
| 20260901030040 | 73 | 322 | 0.0 | 0.0 | 0.00 | 0.00 | 0.00 | 86 | 1011.1 |
| 20260901024525 | 74 | 322 | 0.0 | 0.0 | 0.00 | 0.00 | 0.00 | 84 | 1011.0 |
| 20260901023018 | 75 | 322 | 0.0 | 0.0 | 0.00 | 0.00 | 0.00 | 83 | 1010.9 |
| 20260901021600 | 75 | 322 | 2.0 | 3.0 | 0.00 | 0.00 | 0.00 | 84 | 1011.0 |
| 20260901021503 | 75 | 321 | 2.0 | 3.0 | 0.00 | 0.00 | 0.00 | 84 | 1010.9 |
| 20260901020100 | 75 | 321 | 0.0 | 0.0 | 0.00 | 0.00 | 0.00 | 82 | 1010.8 |
| 20260901014537 | 77 | 323 | 3.0 | 5.0 | 0.00 | 0.00 | 0.00 | 79 | 1010.6 |
| 20260901013035 | 76 | 331 | 0.0 | 1.0 | 0.00 | 0.00 | 0.00 | 83 | 1010.6 |
| 20260901011513 | 77 | 331 | 0.0 | 1.0 | 0.00 | 0.00 | 0.00 | 79 | 1010.3 |
| 20260901010022 | 78 | 331 | 0.0 | 1.0 | 0.00 | 0.00 | 0.00 | 76 | 1010.1 |
| 20260901004551 | 80 | 331 | 1.0 | 4.0 | 0.00 | 0.00 | 0.00 | 71 | 1010.1 |
| 20260901003049 | 82 | 328 | 0.0 | 3.0 | 0.00 | 0.00 | 0.00 | 69 | 1010.1 |
| 20260901001529 | 84 | 326 | 0.0 | 2.0 | 0.00 | 0.00 | 0.00 | 69 | 1010.0 |
| 20260901000029 | 85 | 328 | 0.0 | 3.0 | 0.00 | 0.00 | 0.00 | 67 | 1010.0 |
| 20260831234511 | 86 | 328 | 1.0 | 3.0 | 0.00 | 0.00 | 0.00 | 66 | 1010.2 |
| 20260831233009 | 89 | 317 | 0.0 | 3.0 | 0.00 | 0.00 | 0.00 | 63 | 1010.1 |
| 20260831231556 | 88 | 295 | 0.0 | 1.0 | 0.00 | 0.00 | 0.00 | 61 | 1010.1 |
| 20260831230114 | 88 | 330 | 0.0 | 3.0 | 0.00 | 0.00 | 0.00 | 59 | 1010.0 |
| 20260831224531 | 89 | 323 | 1.0 | 2.0 | 0.00 | 0.00 | 0.00 | 59 | 1009.9 |
| 20260831223029 | 88 | 286 | 0.0 | 1.0 | 0.00 | 0.00 | 0.00 | 64 | 1009.9 |
| 20260831221523 | 89 | 288 | 2.0 | 3.0 | 0.00 | 0.00 | 0.00 | 57 | 1009.8 |
| 20260831220011 | 88 | 291 | 0.0 | 5.0 | 0.00 | 0.00 | 0.00 | 62 | 1009.8 |
| 20260831214551 | 89 | 266 | 1.0 | 4.0 | 0.00 | 0.00 | 0.00 | 58 | 1009.8 |
| 20260831213054 | 88 | 319 | 0.0 | 4.0 | 0.00 | 0.00 | 0.00 | 60 | 1009.8 |
| 20260831211529 | 87 | 319 | 1.0 | 5.0 | 0.00 | 0.00 | 0.00 | 63 | 1009.7 |
| 20260831210026 | 87 | 322 | 1.0 | 4.0 | 0.00 | 0.00 | 0.00 | 64 | 1009.7 |
| 20260831204507 | 85 | 259 | 1.0 | 4.0 | 0.00 | 0.00 | 0.00 | 74 | 1009.7 |
| 20260831203003 | 85 | 294 | 1.0 | 4.0 | 0.00 | 0.00 | 0.00 | 75 | 1009.6 |
| 20260831201545 | 84 | 304 | 0.0 | 4.0 | 0.00 | 0.00 | 0.00 | 75 | 1009.6 |
| 20260831200040 | 83 | 323 | 3.0 | 8.0 | 0.00 | 0.00 | 0.00 | 77 | 1009.4 |
| 20260831194537 | 82 | 322 | 2.0 | 9.0 | 0.00 | 0.00 | 0.00 | 81 | 1009.6 |
| 20260831193016 | 81 | 321 | 3.0 | 7.0 | 0.00 | 0.00 | 0.00 | 86 | 1009.3 |
| 20260831191556 | 80 | 268 | 2.0 | 7.0 | 0.00 | 0.00 | 0.00 | 87 | 1009.2 |
| 20260831190106 | 80 | 335 | 1.0 | 9.0 | 0.00 | 0.00 | 0.00 | 87 | 1009.0 |
| 20260831184544 | 80 | 322 | 3.0 | 7.0 | 0.00 | 0.00 | 0.00 | 86 | 1008.9 |
| 20260831183034 | 80 | 328 | 5.0 | 9.0 | 0.00 | 0.00 | 0.00 | 86 | 1009.0 |
| 20260831181521 | 81 | 319 | 1.0 | 9.0 | 0.00 | 0.00 | 0.00 | 86 | 1009.0 |
| 20260831180011 | 80 | 318 | 2.0 | 9.0 | 0.00 | 0.00 | 0.00 | 87 | 1009.1 |
| 20260831174557 | 80 | 324 | 4.0 | 8.0 | 0.00 | 0.00 | 0.00 | 87 | 1009.3 |
| 20260831173047 | 79 | 319 | 3.0 | 6.0 | 0.00 | 0.00 | 0.00 | 87 | 1009.5 |
| 20260831171542 | 79 | 326 | 1.0 | 5.0 | 0.00 | 0.00 | 0.00 | 87 | 1009.6 |
| 20260831170105 | 79 | 290 | 0.0 | 2.0 | 0.00 | 0.00 | 0.00 | 87 | 1009.7 |
| 20260831164534 | 78 | 293 | 0.0 | 5.0 | 0.00 | 0.00 | 0.00 | 87 | 1009.5 |
| 20260831163033 | 78 | 304 | 0.0 | 4.0 | 0.00 | 0.00 | 0.00 | 87 | 1009.4 |
| 20260831161528 | 78 | 344 | 2.0 | 4.0 | 0.00 | 0.00 | 0.00 | 87 | 1009.1 |
| 20260831160032 | 77 | 289 | 1.0 | 5.0 | 0.00 | 0.00 | 0.00 | 87 | 1009.3 |
| 20260831154527 | 77 | 271 | 0.0 | 3.0 | 0.00 | 0.00 | 0.00 | 87 | 1009.2 |
| 20260831153025 | 76 | 304 | 0.0 | 4.0 | 0.00 | 0.00 | 0.00 | 87 | 1009.0 |
| 20260831151509 | 77 | 278 | 1.0 | 4.0 | 0.00 | 0.00 | 0.00 | 87 | 1008.9 |
| 20260831150005 | 76 | 278 | 0.0 | 6.0 | 0.00 | 0.00 | 0.00 | 87 | 1008.7 |
| 20260831144546 | 77 | 268 | 0.0 | 4.0 | 0.00 | 0.00 | 0.00 | 87 | 1008.7 |
| 20260831143046 | 76 | 272 | 0.0 | 7.0 | 0.00 | 0.00 | 0.00 | 87 | 1008.5 |
| 20260831141526 | 75 | 284 | 3.0 | 7.0 | 0.00 | 0.00 | 0.00 | 85 | 1008.4 |
| 20260831140027 | 74 | 288 | 3.0 | 5.0 | 0.00 | 0.00 | 0.00 | 81 | 1008.2 |
| 20260831134506 | 73 | 238 | 4.0 | 7.0 | 0.00 | 0.00 | 0.00 | 76 | 1008.1 |
| 20260831133004 | 73 | 245 | 6.0 | 9.0 | 0.00 | 0.00 | 0.00 | 72 | 1008.1 |
| 20260831131546 | 73 | 260 | 4.0 | 7.0 | 0.00 | 0.00 | 0.00 | 70 | 1007.8 |
| 20260831130045 | 72 | 233 | 3.0 | 6.0 | 0.00 | 0.00 | 0.00 | 71 | 1007.8 |
| 20260831124524 | 72 | 217 | 5.0 | 8.0 | 0.00 | 0.00 | 0.00 | 71 | 1007.4 |
| 20260831123022 | 72 | 250 | 3.0 | 12.0 | 0.00 | 0.00 | 0.00 | 68 | 1007.3 |
| 20260831121507 | 71 | 224 | 5.0 | 8.0 | 0.00 | 0.00 | 0.00 | 59 | 1006.8 |
| 20260831120100 | 0 | 0.0 | 0.0 | 0.00 | 0.00 | 0.00 | 1006.9 | ||
| 20260831114556 | 0 | 0.0 | 0.0 | 0.00 | 0.00 | 0.00 | 1006.5 | ||
| 20260831113033 | 0 | 0.0 | 0.0 | 0.00 | 0.00 | 0.00 | 1006.5 | ||
| 20260831111532 | 0 | 0.0 | 0.0 | 0.00 | 0.00 | 0.00 | 1006.2 | ||
| 20260831110013 | 0 | 0.0 | 0.0 | 0.00 | 0.00 | 0.00 | 1006.2 | ||
| 20260831104509 | 0 | 0.0 | 0.0 | 0.00 | 0.00 | 0.00 | 1006.3 | ||
| 20260831103004 | 0 | 0.0 | 0.0 | 0.00 | 0.00 | 0.00 | 1006.2 | ||
| 20260831101603 | 0 | 0.0 | 0.0 | 0.00 | 0.00 | 0.00 | 1006.2 | ||
| 20260831100058 | 71 | 165 | 5.0 | 8.0 | 0.00 | 0.00 | 0.00 | 52 | 1006.1 |
| 20260831094557 | 71 | 181 | 5.0 | 7.0 | 0.00 | 0.00 | 0.00 | 53 | 1006.2 |
| 20260831093056 | 70 | 186 | 5.0 | 7.0 | 0.00 | 0.00 | 0.00 | 56 | 1006.2 |
| 20260831091607 | 71 | 198 | 4.0 | 7.0 | 0.00 | 0.00 | 0.00 | 55 | 1006.1 |
| 20260831090038 | 71 | 180 | 6.0 | 8.0 | 0.00 | 0.00 | 0.00 | 57 | 1006.2 |
| 20260831084536 | 71 | 187 | 5.0 | 8.0 | 0.00 | 0.00 | 0.00 | 57 | 1006.2 |
| 20260831083023 | 71 | 195 | 7.0 | 9.0 | 0.00 | 0.00 | 0.00 | 60 | 1005.9 |
| 20260831081516 | 71 | 189 | 5.0 | 8.0 | 0.00 | 0.00 | 0.00 | 63 | 1005.8 |
| 20260831080106 | 72 | 186 | 7.0 | 12.0 | 0.00 | 0.00 | 0.00 | 64 | 1005.8 |
| 20260831074557 | 72 | 174 | 7.0 | 12.0 | 0.00 | 0.00 | 0.00 | 62 | 1005.7 |
| 20260831073039 | 72 | 185 | 6.0 | 10.0 | 0.00 | 0.00 | 0.00 | 62 | 1005.9 |
| 20260831071537 | 72 | 181 | 6.0 | 12.0 | 0.00 | 0.00 | 0.00 | 60 | 1005.9 |
| 20260831070020 | 72 | 169 | 6.0 | 10.0 | 0.00 | 0.00 | 0.00 | 58 | 1006.1 |
| 20260831064518 | 71 | 183 | 6.0 | 9.0 | 0.00 | 0.00 | 0.00 | 58 | 1006.2 |
| 20260831063100 | 71 | 169 | 4.0 | 9.0 | 0.00 | 0.00 | 0.00 | 58 | 1006.2 |
| 20260831061559 | 71 | 132 | 5.0 | 8.0 | 0.00 | 0.00 | 0.00 | 54 | 1006.5 |
| 20260831060042 | 71 | 172 | 6.0 | 8.0 | 0.00 | 0.00 | 0.00 | 57 | 1006.5 |
| 20260831054539 | 71 | 140 | 4.0 | 7.0 | 0.00 | 0.00 | 0.00 | 57 | 1006.5 |
| 20260831053025 | 71 | 162 | 3.0 | 6.0 | 0.00 | 0.00 | 0.00 | 60 | 1006.6 |
| 20260831051520 | 71 | 125 | 2.0 | 6.0 | 0.00 | 0.00 | 0.00 | 62 | 1006.8 |
| 20260831050100 | 71 | 140 | 2.0 | 6.0 | 0.00 | 0.00 | 0.00 | 65 | 1006.8 |
| 20260831044558 | 71 | 150 | 2.0 | 5.0 | 0.00 | 0.00 | 0.00 | 69 | 1006.7 |
| 20260831043037 | 72 | 160 | 2.0 | 5.0 | 0.00 | 0.00 | 0.00 | 72 | 1006.7 |
| 20260831041548 | 72 | 197 | 3.0 | 7.0 | 0.00 | 0.00 | 0.00 | 76 | 1006.5 |
| 20260831040020 | 73 | 185 | 6.0 | 11.0 | 0.00 | 0.00 | 0.00 | 78 | 1006.4 |
| 20260831034516 | 73 | 174 | 6.0 | 12.0 | 0.00 | 0.00 | 0.00 | 79 | 1006.2 |